CAPE
0 0 0 0 0 0 0 0 0 0 0 0 0 0 0 0 0 0 0 0 0 0 0 0 0 0 0 0 0 0 0 0 0 0 0 0 0 0 0 0 0 0 0 0
0 0 0 0 0 0 0 0 0 0 0 0 0 0 0 0 0 0 0 0 0 0 0 0 0 0 0 0 0 0 0 0 0 0 0 0 0 0 0 0 0 0 0 0
0 0 0 0 0 0 0 0 0 0 0 0 0 0 0 0 0 0 0 0 0 0 0 0 0 0 0 0 0 0 0 0 0 0 0 0 0 0 0 0 0 0 0 0
0 0 0 0 0 0 0 0 0 0 0 0 0 0 0 0 0 0 0 0 0 0 0 0 0 0 0 0 0 0 0 0 0 0 0 0 0 0 0 0 0 0 0 0
0 0 0 0 0 0 0 0 0 0 0 0 0 0 0 0 0 0 0 0 0 0 0 0 0 0 0 0 0 0 0 0 0 0 0 0 0 0 0 0 0 0 0 0
0 0 0 0 0 0 0 0 0 0 0 0 0 0 0 0 0 0 0 0 0 0 0 0 0 0 0 0 0 0 0 0 0 0 0 0 0 0 0 0 0 0 0 0
0 0 0 0 0 0 0 0 0 0 0 0 0 0 0 0 0 0 0 0 0 0 0 0 0 0 0 0 0 0 0 0 0 0 0 0 0 0 0 0 0 0 0 0
0 0 0 0 0 0 0 0 0 0 0 0 0 0 0 0 0 0 0 0 0 0 0 0 0 0 0 0 0 0 0 0 0 0 0 0 0 0 0 0 0 0 0 0
0 0 0 0 0 0 0 0 0 0 0 0 0 0 0 0 0 0 0 0 0 0 0 0 0 0 0 0 0 0 0 0 0 0 0 0 0 0 0 0 0 0 0 0
0 0 0 0 0 0 0 0 0 0 0 0 0 0 0 0 0 0 0 0 0 0 0 0 0 0 0 0 0 0 0 0 0 0 0 0 0 0 0 0 0 0 0 0
0 0 0 0 0 0 0 0 0 0 0 0 0 0 0 0 0 0 0 0 0 0 0 0 0 0 0 0 0 0 0 0 0 0 0 0 0 0 0 0 0 0 0 0
0 0 0 0 0 0 0 0 0 0 0 0 0 0 0 0 0 0 0 0 0 0 0 0 0 0 0 0 0 0 0 0 0 0 0 0 0 0 0 0 0 0 0 0
0 0 0 0 0 0 0 0 0 0 0 0 0 0 0 0 0 0 0 0 0 0 0 0 0 0 0 0 0 0 0 0 0 0 0 0 0 0 0 0 0 0 0 0
0 0 0 0 0 0 0 0 0 0 0 0 0 0 0 0 0 0 0 0 0 0 0 0 0 0 0 0 0 0 0 0 0 0 0 0 0 0 0 0 0 0 0 0
0 0 0 0 0 0 0 0 0 0 0 0 0 0 0 0 0 0 0 0 0 0 0 0 0 0 0 0 0 0 0 0 0 0 0 0 0 0 0 0 0 0 0 0
0 0 0 0 0 0 0 0 0 0 0 0 0 0 0 0 0 0 0 0 0 0 0 0 0 0 0 0 0 0 0 0 0 0 0 0 0 0 0 0 0 0 0 0
0 0 0 0 0 0 0 0 0 0 0 0 0 0 0 0 0 0 0 0 0 0 0 0 0 0 0 0 0 0 0 0 0 0 0 0 0 0 0 0 0 0 0 0
0 0 0 0 0 0 0 0 0 0 0 0 0 0 0 0 0 0 0 0 0 0 0 0 0 0 0 0 0 0 0 0 0 0 0 0 0 0 0 0 0 0 0 0
0 0 0 0 0 0 0 0 0 0 0 0 0 0 0 0 0 0 0 0 0 0 0 0 0 0 0 0 0 0 0 0 0 0 0 0 0 0 0 0 0 0 0 0
0 0 0 0 0 0 0 0 0 0 0 0 0 0 0 0 0 0 0 0 0 0 0 0 0 0 0 0 0 0 0 0 0 0 0 0 0 0 0 0 0 0 0 0
0 0 0 0 0 0 0 0 0 0 0 0 0 0 0 0 0 0 0 0 0 0 0 0 0 0 0 0 0 0 0 0 0 0 0 0 0 0 0 0 0 0 0 0
0 0 0 0 0 0 0 0 0 0 0 0 0 0 0 0 0 0 0 0 0 0 0 0 0 0 0 0 0 0 0 0 0 0 0 0 0 0 0 0 0 0 0 0
0 0 0 0 0 0 0 0 0 0 0 0 0 0 0 0 0 0 0 0 0 0 0 0 0 0 0 0 0 0 0 0 0 0 0 0 0 0 0 0 0 0 0 0
0 0 0 0 0 0 0 0 0 0 0 0 0 0 0 0 0 0 0 0 0 0 0 0 0 0 0 0 0 0 0 0 0 0 0 0 0 0 0 0 0 0 0 0
0 0 0 0 0 0 0 0 0 0 0 0 0 0 0 0 0 0 0 0 0 0 0 0 0 0 0 0 0 0 0 0 0 0 0 0 0 0 0 0 0 0 0 0
0 0 0 0 0 0 0 0 0 0 0 0 0 0 0 0 0 0 0 0 0 0 0 0 0 0 0 0 0 0 0 0 0 0 0 0 0 0 0 0 0 0 0 0
CIN
-0 -0 -0 -0 -0 -0 -0 -0 -0 -0 -0 -0 -0 -0 -0 -0 -0 -0 -0 -0 -0 -0 -0 -0 -0 -0 -0 -0 -0 -0 -0 -0 -0 -0 -0 -0 -0 -0 -0 -0 -0 -0 -0 -0
-0 -0 -0 -0 -0 -0 -0 -0 -0 -0 -0 -0 -0 -0 -0 -0 -0 -0 -0 -0 -0 -0 -0 -0 -0 -0 -0 -0 -0 -0 -0 -0 -0 -0 -0 -0 -0 -0 -0 -0 -0 -0 -0 -0
-0 -0 -0 -0 -0 -0 -0 -0 -0 -0 -0 -0 -0 -0 -0 -0 -0 -0 -0 -0 -0 -0 -0 -0 -0 -0 -0 -0 -0 -0 -0 -0 -0 -0 -0 -0 -0 -0 -0 -0 -0 -0 -0 -0
-0 -0 -0 -0 -0 -0 -0 -0 -0 -0 -0 -0 -0 -0 -0 -0 -0 -0 -0 -0 -0 -0 -0 -0 -0 -0 -0 -0 -0 -0 -0 -0 -0 -0 -0 -0 -0 -0 -0 -0 -0 -0 -0 -0
-0 -0 -0 -0 -0 -0 -0 -0 -0 -0 -0 -0 -0 -0 -0 -0 -0 -0 -0 -0 -0 -0 -0 -0 -0 -0 -0 -0 -0 -0 -0 -0 -0 -0 -0 -0 -0 -0 -0 -0 -0 -0 -0 -0
-0 -0 -0 -0 -0 -0 -0 -0 -0 -0 -0 -0 -0 -0 -0 -0 -0 -0 -0 -0 -0 -0 -0 -0 -0 -0 -0 -0 -0 -0 -0 -0 -0 -0 -0 -0 -0 -0 -0 -0 -0 -0 -0 -0
-0 -0 -0 -0 -0 -0 -0 -0 -0 -0 -0 -0 -0 -0 -0 -0 -0 -0 -0 -0 -0 -0 -0 -0 -0 -0 -0 -0 -0 -0 -0 -0 -0 -0 -0 -0 -0 -0 -0 -0 -0 -0 -0 -0
-0 -0 -0 -0 -0 -0 -0 -0 -0 -0 -0 -0 -0 -0 -0 -0 -0 -0 -0 -0 -0 -0 -0 -0 -0 -0 -0 -0 -0 -0 -0 -0 -0 -0 -0 -0 -0 -0 -0 -0 -0 -0 -0 -0
-0 -0 -0 -0 -0 -0 -0 -0 -0 -0 -0 -0 -0 -0 -0 -0 -0 -0 -0 -0 -0 -0 -0 -0 -0 -0 -0 -0 -0 -0 -0 -0 -0 -0 -0 -0 -0 -0 -0 -0 -0 -0 -0 -0
-0 -0 -0 -0 -0 -0 -0 -0 -0 -0 -0 -0 -0 -0 -0 -0 -0 -0 -0 -0 -0 -0 -0 -0 -0 -0 -0 -0 -0 -0 -0 -0 -0 -0 -0 -0 -0 -0 -0 -0 -0 -0 -0 -0
-0 -0 -0 -0 -0 -0 -0 -0 -0 -0 -0 -0 -0 -0 -0 -0 -0 -0 -0 -0 -0 -0 -0 -0 -0 -0 -0 -0 -0 -0 -0 -0 -0 -0 -0 -0 -0 -0 -0 -0 -0 -0 -0 -0
-0 -0 -0 -0 -0 -0 -0 -0 -0 -0 -0 -0 -0 -0 -0 -0 -0 -0 -0 -0 -0 -0 -0 -0 -0 -0 -0 -0 -0 -0 -0 -0 -0 -0 -0 -0 -0 -0 -0 -0 -0 -0 -0 -0
-0 -0 -0 -0 -0 -0 -0 -0 -0 -0 -0 -0 -0 -0 -0 -0 -0 -0 -0 -0 -0 -0 -0 -0 -0 -0 -0 -0 -0 -0 -0 -0 -0 -0 -0 -0 -0 -0 -0 -0 -0 -0 -0 -0
-0 -0 -0 -0 -0 -0 -0 -0 -0 -0 -0 -0 -0 -0 -0 -0 -0 -0 -0 -0 -0 -0 -0 -0 -0 -0 -0 -0 -0 -0 -0 -0 -0 -0 -0 -0 -0 -0 -0 -0 -0 -0 -0 -0
-0 -0 -0 -0 -0 -0 -0 -0 -0 -0 -0 -0 -0 -0 -0 -0 -0 -0 -0 -0 -0 -0 -0 -0 -0 -0 -0 -0 -0 -0 -0 -0 -0 -0 -0 -0 -0 -0 -0 -0 -0 -0 -0 -0
-0 -0 -0 -0 -0 -0 -0 -0 -0 -0 -0 -0 -0 -0 -0 -0 -0 -0 -0 -0 -0 -0 -0 -0 -0 -0 -0 -0 -0 -0 -0 -0 -0 -0 -0 -0 -0 -0 -0 -0 -0 -0 -0 -0
-0 -0 -0 -0 -0 -0 -0 -0 -0 -0 -0 -0 -0 -0 -0 -0 -0 -0 -0 -0 -0 -0 -0 -0 -0 -0 -0 -0 -0 -0 -0 -0 -0 -0 -0 -0 -0 -0 -0 -0 -0 -0 -0 -0
-0 -0 -0 -0 -0 -0 -0 -0 -0 -0 -0 -0 -0 -0 -0 -0 -0 -0 -0 -0 -0 -0 -0 -0 -0 -0 -0 -0 -0 -0 -0 -0 -0 -0 -0 -0 -0 -0 -0 -0 -0 -0 -0 -0
-0 -0 -0 -0 -0 -0 -0 -0 -0 -0 -0 -0 -0 -0 -0 -0 -0 -0 -0 -0 -0 -0 -0 -0 -0 -0 -0 -0 -0 -0 -0 -0 -0 -0 -0 -0 -0 -0 -0 -0 -0 -0 -0 -0
-0 -0 -0 -0 -0 -0 -0 -0 -0 -0 -0 -0 -0 -0 -0 -0 -0 -0 -0 -0 -0 -0 -0 -0 -0 -0 -0 -0 -0 -0 -0 -0 -0 -0 -0 -0 -0 -0 -0 -0 -0 -0 -0 -0
-0 -0 -0 -0 -0 -0 -0 -0 -0 -0 -0 -0 -0 -0 -0 -0 -0 -0 -0 -0 -0 -0 -0 -0 -0 -0 -0 -0 -0 -0 -0 -0 -0 -0 -0 -0 -0 -0 -0 -0 -0 -0 -0 -0
-0 -0 -0 -0 -0 -0 -0 -0 -0 -0 -0 -0 -0 -0 -0 -0 -0 -0 -0 -0 -0 -0 -0 -0 -0 -0 -0 -0 -0 -0 -0 -0 -0 -0 -0 -0 -0 -0 -0 -0 -0 -0 -0 -0
-0 -0 -0 -0 -0 -0 -0 -0 -0 -0 -0 -0 -0 -0 -0 -0 -0 -0 -0 -0 -0 -0 -0 -0 -0 -0 -0 -0 -0 -0 -0 -0 -0 -0 -0 -0 -0 -0 -0 -0 -0 -0 -0 -0
-0 -0 -0 -0 -0 -0 -0 -0 -0 -0 -0 -0 -0 -0 -0 -0 -0 -0 -0 -0 -0 -0 -0 -0 -0 -0 -0 -0 -0 -0 -0 -0 -0 -0 -0 -0 -0 -0 -0 -0 -0 -0 -0 -0
-0 -0 -0 -0 -0 -0 -0 -0 -0 -0 -0 -0 -0 -0 -0 -0 -0 -0 -0 -0 -0 -0 -0 -0 -0 -0 -0 -0 -0 -0 -0 -0 -0 -0 -0 -0 -0 -0 -0 -0 -0 -0 -0 -0
-0 -0 -0 -0 -0 -0 -0 -0 -0 -0 -0 -0 -0 -0 -0 -0 -0 -0 -0 -0 -0 -0 -0 -0 -0 -0 -0 -0 -0 -0 -0 -0 -0 -0 -0 -0 -0 -0 -0 -0 -0 -0 -0 -0
Wind_Speed
15 15 14 14 13 13 12 10 8 8 10 6 8 10 11 11 10 12 12 13 15 14 10 9 11 11 11 10 10 10 9 8 7 5 5 4 5 5 5 5 5 5 6 6
15 14 14 14 13 11 11 9 8 8 8 5 6 11 9 10 8 10 11 11 10 8 9 10 11 13 13 12 12 11 11 10 9 7 5 3 3 3 3 3 3 4 5 5
14 15 14 13 12 11 10 9 8 7 5 6 7 7 11 10 10 9 7 10 6 4 5 7 9 11 12 13 12 12 12 11 10 8 5 3 2 4 3 2 2 3 4 4
14 15 14 13 12 11 9 11 8 5 4 6 10 8 10 10 11 10 9 6 4 3 4 4 5 6 7 11 10 10 10 9 9 8 7 6 2 1 1 2 3 3 2 2
14 14 13 11 11 12 10 11 9 9 7 7 12 8 12 13 15 14 14 11 6 3 2 3 4 3 5 6 7 8 8 8 8 7 7 5 5 3 3 4 5 4 4 1
14 14 13 13 14 13 13 10 10 13 14 12 14 12 12 14 15 14 13 12 11 9 4 2 0 2 4 4 6 6 7 9 8 8 8 8 7 6 6 5 6 6 6 5
14 13 14 13 12 14 14 8 12 13 13 12 16 6 7 11 11 11 10 10 12 12 12 9 5 1 3 5 7 9 10 11 11 11 11 11 11 10 9 9 9 9 8 8
13 14 15 16 16 16 19 18 16 12 11 7 14 10 14 14 11 7 6 9 10 11 12 13 11 8 5 5 7 9 10 12 12 13 13 13 12 12 12 11 11 10 9 9
14 14 15 17 16 17 18 18 18 17 17 14 14 10 14 16 14 13 10 9 9 9 12 16 16 14 12 8 7 9 11 11 12 13 13 14 13 13 13 13 12 12 11 11
13 13 15 14 15 18 16 17 18 19 16 15 17 11 11 16 15 12 9 6 6 7 14 20 23 23 19 14 9 7 9 11 11 11 12 12 13 14 14 13 14 13 13 11
11 13 14 14 12 15 16 17 18 18 18 17 17 15 17 16 15 16 9 6 5 7 17 29 31 26 22 19 14 10 7 7 9 10 11 12 12 13 13 14 14 14 13 12
9 14 13 15 17 17 15 15 15 18 19 18 21 16 17 16 16 16 13 11 11 11 20 32 32 25 21 21 19 15 11 9 8 8 9 11 11 11 12 13 13 13 13 13
8 13 16 17 17 15 13 14 14 17 19 17 20 21 18 20 21 19 16 18 17 17 24 27 24 20 22 22 20 19 16 14 10 7 7 8 9 11 12 12 12 12 12 13
10 14 16 16 20 18 16 15 12 12 17 17 14 15 16 18 18 20 21 21 20 21 20 19 18 15 18 22 22 22 20 16 13 10 7 6 6 8 9 9 10 11 11 12
14 19 19 20 20 20 21 18 14 11 12 14 15 20 18 18 24 26 24 22 21 19 19 18 17 15 18 20 22 22 21 18 14 11 9 6 4 5 6 7 8 9 10 12
17 22 22 25 22 20 23 21 17 15 16 16 17 20 20 23 25 27 28 26 25 22 20 16 14 14 15 16 20 22 21 19 15 13 12 10 8 6 6 6 7 8 10 11
17 18 21 26 25 23 26 19 13 18 17 19 25 26 31 30 30 30 30 26 25 24 21 16 14 11 12 16 19 20 21 18 16 14 12 11 10 9 7 8 7 8 10 10
18 19 22 27 25 29 22 19 21 19 23 20 24 25 26 29 29 28 25 26 28 27 21 16 12 12 12 14 16 18 19 18 17 15 14 13 12 11 10 10 8 9 10 11
22 21 26 28 27 33 30 24 21 23 32 29 23 25 27 29 30 28 23 26 28 26 20 16 14 12 12 14 16 18 20 20 20 19 17 17 15 14 13 11 10 9 10 11
23 24 24 26 32 33 26 21 19 23 37 19 21 29 30 28 36 33 26 28 27 23 19 16 12 11 13 13 16 18 21 22 23 23 22 19 18 18 18 18 16 14 12 13
24 26 27 28 34 33 27 21 18 32 34 21 27 29 28 29 30 31 28 28 25 23 18 15 13 12 13 15 17 18 20 22 22 23 22 21 20 20 20 21 19 18 16 14
29 27 29 29 34 41 19 17 25 25 26 28 29 30 31 30 31 32 30 29 25 22 20 17 16 15 16 17 18 20 22 23 23 22 24 24 25 25 26 25 24 21 19 18
36 31 33 29 33 28 19 25 21 27 32 33 33 31 32 34 34 34 33 31 28 25 23 21 19 20 20 20 20 22 23 24 25 27 29 30 30 30 28 27 27 25 23 22
35 31 37 38 36 36 34 32 32 32 35 33 33 35 34 37 36 36 33 32 30 28 26 24 23 24 23 21 21 21 24 25 27 30 33 32 34 34 31 30 28 26 24 23
37 31 38 45 43 43 40 37 37 34 33 36 38 37 36 35 35 32 31 30 30 29 27 24 24 25 24 24 22 22 24 25 27 28 31 35 34 32 32 33 31 30 25 23
37 41 43 50 41 42 44 37 33 39 42 41 40 40 37 35 35 34 33 33 32 30 29 28 28 28 27 25 24 24 25 26 29 31 33 33 35 36 34 34 36 31 30 26
Wind_Direction
166 158 151 152 166 150 148 153 169 164 132 164 166 216 224 202 172 175 165 165 173 172 151 147 161 166 169 171 170 169 164 159 146 139 128 126 135 121 122 119 119 113 111 99
149 148 144 147 149 147 149 166 170 150 122 144 207 245 205 97 142 172 171 170 163 151 153 159 166 177 182 182 182 180 180 175 171 162 152 124 90 102 98 91 108 131 127 120
162 140 137 138 141 156 155 164 156 164 204 125 239 131 101 87 82 84 136 165 148 134 149 163 177 183 184 189 189 190 190 188 186 181 165 142 64 30 30 50 81 129 140 135
152 137 134 137 140 133 170 102 114 142 178 154 74 172 77 77 71 76 83 80 105 136 161 173 182 190 193 196 196 199 200 201 199 194 195 197 210 244 322 11 23 34 112 131
150 141 142 151 134 109 115 89 87 83 99 105 78 101 69 64 41 47 43 45 52 76 157 188 204 230 219 212 213 217 219 222 220 223 225 235 234 255 314 340 345 349 359 11
126 114 120 107 91 91 80 95 79 71 74 96 75 76 66 51 47 52 52 48 39 40 72 109 235 297 254 278 254 255 252 250 247 248 249 250 259 275 304 304 321 329 334 337
101 97 84 92 100 78 78 104 87 88 81 76 46 78 96 49 49 54 50 62 53 54 53 59 57 25 286 275 278 279 272 266 264 260 261 259 260 272 282 294 306 314 320 324
80 75 60 49 53 52 38 53 63 73 68 55 38 97 56 43 35 39 81 92 86 71 51 29 20 8 336 288 267 270 270 268 266 264 262 267 268 276 281 289 296 302 306 315
50 40 39 30 30 40 32 39 34 35 40 45 53 51 24 31 37 42 76 87 90 63 33 9 0 353 344 321 284 257 252 257 256 254 263 262 264 267 276 281 289 294 298 307
37 43 27 28 36 16 26 26 30 30 39 40 29 37 33 25 25 37 48 69 59 41 9 357 350 341 337 333 325 297 262 253 253 249 248 255 256 263 270 279 280 286 292 294
31 23 27 31 39 24 21 15 17 18 17 22 19 23 16 18 16 11 16 24 16 354 349 342 340 340 336 335 335 330 312 274 257 249 243 239 243 252 258 269 275 278 284 288
12 3 13 5 1 4 16 20 16 12 9 6 357 3 13 11 4 357 354 345 334 326 334 337 335 339 341 337 337 337 335 318 290 261 252 245 243 243 246 251 266 273 277 284
11 353 352 356 359 7 13 11 9 3 358 355 352 355 359 358 353 347 332 328 327 323 323 333 337 339 338 339 339 339 339 335 327 309 276 257 244 235 236 241 252 264 271 278
343 331 329 335 337 347 349 352 352 352 349 345 324 292 316 323 324 328 324 323 323 326 326 333 338 340 341 337 338 339 341 341 339 331 313 286 260 240 240 241 244 252 262 272
319 318 320 320 325 328 328 331 331 321 315 324 306 327 313 320 335 337 336 335 332 330 332 334 336 338 340 338 338 342 344 347 349 345 337 320 293 273 270 263 249 246 261 270
313 313 318 317 321 321 320 320 314 313 316 308 310 310 317 330 335 337 336 335 332 329 330 333 339 341 344 347 342 344 347 350 357 354 348 343 335 322 302 283 278 266 263 266
308 313 318 315 321 326 322 324 322 331 331 331 332 334 337 339 340 340 340 342 341 340 338 338 343 347 350 347 346 348 351 356 357 357 354 348 339 331 319 310 294 279 270 270
304 307 311 312 318 312 326 333 332 327 328 325 326 330 335 337 340 341 344 344 343 343 344 344 348 351 354 353 354 352 355 357 358 359 355 350 342 334 329 321 304 299 291 279
296 299 305 307 306 310 312 317 322 322 323 326 325 333 336 339 340 340 348 347 345 346 349 349 351 354 356 352 350 348 348 348 348 349 351 347 343 337 332 321 312 303 300 292
290 294 292 303 304 306 317 327 333 333 322 339 339 335 335 338 333 336 342 343 344 347 348 347 348 347 342 343 343 343 341 340 340 341 341 341 339 334 329 324 320 316 305 299
293 292 283 288 298 303 307 316 328 319 323 335 331 332 331 328 330 333 334 335 338 340 341 339 335 330 328 331 332 333 334 333 337 337 337 338 334 329 325 322 318 313 306 300
285 288 292 293 294 299 305 312 306 316 326 327 325 326 324 321 323 326 326 327 326 327 329 325 319 315 317 319 322 323 324 327 331 333 330 330 329 326 323 318 314 310 305 300
283 281 290 283 293 306 299 305 298 316 315 319 320 321 320 317 318 319 319 319 320 316 315 315 309 309 309 310 312 314 319 321 323 326 326 325 325 323 320 317 314 310 306 301
285 286 285 290 289 291 295 295 299 305 305 310 313 314 315 313 315 313 313 314 313 313 310 307 304 301 301 302 304 309 316 319 319 321 322 324 323 321 319 317 315 313 308 303
284 286 287 287 292 298 296 296 299 301 304 305 307 307 309 311 312 313 314 315 315 314 312 308 303 299 296 299 299 304 310 314 316 320 321 322 322 321 319 314 311 310 308 304
278 281 283 286 297 295 297 300 302 300 300 302 302 305 307 307 307 308 307 310 313 313 312 309 303 298 296 296 298 302 307 311 313 316 319 321 320 319 318 317 311 308 305 305